Theta_e
320 320 320 319 319 319 319 319 319 319 320 320 320 320 319 319 320 319 319 319 319 319 319 319 319 319 319 319 319 320 318 319 322 322 321 321 334 341 339 333 336 339 338 331 331 335 334 332 327 329 328 333 335 335 342 342 345 342 330 330 324 324 325 329 327 329 333 332 333 337 339 339 335 342 344 348 344 343 343 340 340 339 335 338 342 345 346 347
320 320 319 319 319 319 319 319 319 319 319 319 319 319 319 319 319 319 319 319 319 319 319 319 319 319 319 319 319 319 319 321 320 321 319 330 344 341 338 340 335 334 344 327 330 331 328 325 325 326 328 330 336 334 341 339 343 333 332 329 324 328 330 336 334 338 334 333 336 337 339 339 339 343 343 339 338 339 337 337 337 333 336 340 343 343 344 345
320 319 319 319 319 319 319 319 319 319 319 319 319 319 319 319 319 319 319 319 318 318 318 318 318 318 319 319 319 319 319 320 322 319 321 343 345 338 342 342 339 339 336 329 332 328 326 325 326 324 328 329 334 333 336 339 339 337 333 326 327 331 333 337 337 339 339 338 336 337 337 339 340 342 349 338 335 338 333 332 333 332 334 337 340 342 343 343
320 319 319 319 319 319 319 319 319 319 319 319 318 318 319 319 319 318 318 318 318 318 318 318 318 318 319 319 319 321 320 320 317 322 337 352 348 342 339 343 340 341 334 333 332 327 327 327 325 324 325 326 333 335 333 338 333 335 331 328 327 333 332 336 339 340 339 340 337 340 341 340 343 343 344 339 335 336 337 337 334 333 334 337 340 340 341 341
319 319 319 319 319 319 319 319 319 319 318 318 318 318 318 318 318 318 318 318 318 318 318 318 318 318 318 319 318 321 320 310 312 329 341 351 346 339 337 342 340 329 329 333 331 327 326 325 322 320 321 322 333 333 332 337 337 333 330 331 332 336 333 337 340 342 341 342 340 338 336 335 344 341 340 341 332 330 336 338 338 337 337 338 338 339 340 339
319 319 319 319 319 319 319 319 319 318 318 318 318 318 318 318 318 318 318 318 318 318 317 317 318 319 319 319 320 321 316 302 315 329 355 346 341 340 339 341 342 332 328 331 328 326 325 323 320 316 317 322 330 329 333 335 338 328 332 332 337 337 334 339 341 344 342 341 338 335 338 341 338 335 340 338 336 339 344 343 340 339 339 339 340 339 338 338
319 319 319 319 319 319 319 318 318 318 318 318 318 318 318 317 318 317 317 317 317 317 318 318 319 319 319 318 320 319 315 315 318 341 350 352 342 340 339 339 344 337 328 326 326 325 325 321 318 315 317 322 331 331 334 333 336 330 324 332 334 341 338 341 341 341 342 340 337 340 343 339 338 333 341 336 343 343 344 342 340 339 339 339 337 337 336 336
318 318 318 318 318 318 318 318 318 318 318 318 318 318 318 317 317 317 317 317 317 318 318 318 319 319 319 320 319 320 313 309 322 341 350 348 341 333 333 326 326 330 328 323 324 325 324 319 316 317 316 320 331 331 334 330 331 327 325 335 339 340 341 341 340 339 340 338 339 342 338 336 340 337 340 339 342 343 343 343 339 338 338 337 336 335 335 336
318 318 318 318 318 318 318 318 318 318 318 318 317 318 317 317 317 316 317 317 317 318 318 318 318 319 320 319 315 312 310 321 327 332 346 341 332 324 320 320 322 327 327 323 324 326 323 319 318 317 314 323 329 329 332 325 323 328 333 338 340 337 341 341 341 343 341 341 343 338 336 339 341 344 340 341 342 343 342 339 338 338 336 335 335 335 335 336
318 318 318 318 318 318 318 318 318 318 318 318 317 317 317 316 316 317 317 317 317 318 318 319 319 320 318 319 318 308 318 327 326 333 336 336 326 322 318 319 318 324 324 320 321 324 321 320 317 319 319 327 331 330 332 325 320 336 334 338 339 337 338 341 340 342 344 343 342 336 336 337 343 339 332 343 343 341 338 337 338 337 335 335 334 334 336 336
318 318 318 318 318 318 318 318 318 318 318 317 317 316 316 316 316 316 317 317 317 318 319 319 321 319 321 320 310 307 319 325 326 333 331 327 323 319 319 321 319 323 322 320 319 321 323 321 319 320 324 327 329 329 328 326 325 335 337 337 337 339 340 338 339 340 341 337 341 338 334 336 339 338 333 339 341 342 337 336 336 336 335 335 335 335 336 336
318 318 318 318 318 318 318 318 318 318 318 317 316 316 316 316 316 316 316 316 318 318 319 320 320 321 321 318 311 308 318 320 325 333 333 325 324 324 324 322 322 322 322 320 320 322 323 321 320 318 318 331 324 328 326 327 326 334 335 331 334 336 334 338 334 336 339 333 336 341 332 329 335 333 339 341 341 340 339 336 335 335 334 335 335 335 336 336
318 318 318 318 317 317 318 318 318 318 317 316 315 315 315 315 315 315 315 314 317 319 321 322 322 322 320 312 311 312 317 321 324 330 328 327 325 325 323 322 321 324 324 323 320 322 323 321 319 316 322 326 328 321 323 326 326 338 338 333 328 329 327 333 337 339 338 336 337 338 317 324 332 337 341 342 340 340 337 335 335 334 334 333 334 334 335 336
318 318 318 317 317 317 317 318 317 317 316 316 315 314 314 314 315 315 316 316 318 319 321 319 322 324 320 315 311 315 318 322 324 325 325 323 320 320 322 321 324 325 326 324 323 324 322 322 321 319 325 325 326 333 323 322 329 327 332 331 326 321 323 335 336 336 331 336 337 336 317 322 331 336 340 343 343 338 334 334 333 333 333 333 334 333 335 335
318 318 318 317 317 317 317 317 316 316 315 315 314 314 314 313 314 314 316 317 318 320 321 322 324 322 319 309 313 316 333 325 322 323 324 321 318 316 318 320 320 322 324 323 324 324 323 321 318 318 319 328 328 322 319 318 326 329 323 319 325 322 322 332 337 332 327 335 338 333 320 324 329 333 341 343 341 338 335 333 333 332 332 333 333 333 334 335
318 317 317 317 317 317 317 317 316 316 316 314 313 313 315 314 314 316 317 319 322 320 323 324 327 323 315 308 314 328 323 319 321 325 325 324 319 316 318 317 319 321 322 321 323 324 322 319 314 318 320 325 322 319 317 317 322 328 322 321 317 323 324 326 332 334 336 334 337 333 318 324 328 336 341 344 342 340 334 332 333 332 332 332 331 332 334 334
317 317 317 317 317 317 317 316 316 315 314 314 313 315 316 317 317 318 319 320 323 323 326 325 323 322 311 312 319 316 317 320 324 324 323 325 324 319 316 315 313 316 319 318 319 319 318 314 316 316 319 320 323 321 314 314 318 320 323 317 321 317 321 318 327 333 336 333 329 332 324 326 330 335 339 343 343 339 334 333 332 333 333 333 331 332 333 333
317 317 317 316 317 317 316 316 316 314 314 313 313 316 320 319 320 319 320 323 329 328 327 328 325 316 307 315 309 312 317 318 322 324 324 325 325 320 317 313 313 314 314 313 316 313 315 311 313 309 313 316 319 318 312 310 316 317 317 319 319 321 322 320 320 327 332 334 329 330 329 325 330 333 337 341 343 339 334 332 332 332 332 333 330 331 333 333
317 317 316 316 316 316 316 315 315 314 313 313 314 318 319 321 324 326 327 327 322 321 316 314 316 305 302 309 312 314 316 321 323 323 322 323 323 323 321 320 314 312 308 308 310 311 313 310 312 308 307 311 315 318 316 317 320 319 318 320 320 316 318 319 326 332 332 328 327 326 324 327 328 330 334 339 342 339 335 336 333 333 332 333 331 331 332 333
317 317 316 316 316 316 315 315 314 313 311 315 323 326 325 323 322 320 325 324 321 311 310 312 314 312 313 313 314 318 320 322 317 321 322 324 321 319 318 317 312 311 309 304 308 310 312 305 305 304 307 313 318 320 319 320 319 321 321 321 322 321 319 328 328 332 335 327 324 326 329 329 331 330 332 337 340 339 335 334 332 333 333 333 331 333 332 333
317 316 316 316 315 315 314 313 313 311 310 315 321 322 313 312 309 306 313 314 315 315 313 314 314 312 312 314 316 315 313 314 319 318 321 325 322 316 313 314 310 305 307 308 307 312 311 304 305 308 310 314 319 320 320 317 322 319 319 319 318 322 318 326 328 333 333 327 324 329 327 329 333 333 333 335 337 335 336 335 332 333 334 333 333 333 334 334
316 316 316 315 315 314 313 313 311 310 307 318 324 320 317 316 318 320 316 310 314 315 314 313 314 314 317 316 317 318 316 313 314 318 322 322 317 312 312 312 308 304 308 308 308 306 304 303 307 309 312 316 320 320 319 315 314 320 317 321 318 319 324 329 332 333 332 330 325 325 325 328 332 336 335 334 335 337 338 338 336 335 335 334 333 334 336 334
316 316 316 315 315 313 313 312 311 307 320 322 323 320 318 321 323 324 320 314 311 314 313 312 311 313 314 316 318 318 312 311 310 316 318 319 315 313 311 309 308 307 307 306 303 304 301 305 309 312 312 313 317 318 318 316 315 319 317 320 316 320 319 314 326 331 331 330 324 325 323 326 332 335 337 338 337 337 339 341 340 338 338 334 333 335 335 334
316 316 315 315 314 313 312 311 308 313 318 322 319 318 322 324 323 322 316 310 307 310 312 312 313 312 312 311 316 315 312 313 314 313 321 318 313 314 311 309 307 307 304 305 305 305 305 309 313 312 311 315 316 317 316 313 311 316 315 318 319 319 319 320 321 326 328 327 329 326 324 321 326 326 327 332 337 339 339 340 339 339 341 339 339 336 338 335
316 316 316 315 313 312 311 308 314 323 325 324 320 323 324 324 325 323 314 312 309 307 314 312 313 312 314 320 318 314 313 313 314 319 320 318 314 311 309 312 309 305 305 305 305 305 306 311 313 311 312 315 315 314 314 312 310 313 315 316 322 322 321 322 323 322 319 318 324 321 310 313 322 326 325 330 334 331 338 338 335 339 340 340 336 338 340 339
316 316 316 315 314 311 308 312 320 321 318 316 321 323 325 323 324 325 315 306 299 304 312 304 314 307 317 313 316 315 313 308 317 319 320 319 322 315 312 309 310 305 306 305 304 306 307 312 314 311 313 313 313 313 315 315 310 309 311 319 320 322 321 321 321 322 313 309 318 324 312 307 318 320 326 329 329 329 333 338 336 339 339 339 337 340 340 339
316 316 315 314 314 310 317 316 322 318 314 316 322 324 323 323 331 323 311 302 298 304 304 309 310 307 313 312 313 315 300 306 316 320 317 321 315 321 310 308 309 310 310 308 304 301 308 312 312 313 313 312 311 310 315 314 310 307 312 315 320 320 319 320 320 318 317 319 324 323 318 312 310 318 327 328 327 328 330 331 335 338 340 339 339 340 341 339
316 315 314 313 312 310 320 320 318 315 316 320 323 323 323 328 328 324 308 294 291 309 302 308 309 316 313 313 313 309 310 314 307 313 319 320 319 315 311 309 307 308 309 306 297 306 308 309 310 309 310 310 309 312 315 314 310 307 312 314 314 317 318 318 316 319 319 314 310 317 318 312 313 322 327 327 324 324 328 334 334 338 339 339 340 339 342 342
315 314 313 313 311 310 315 318 320 317 322 323 323 322 323 329 323 313 302 292 301 306 315 305 316 312 311 311 309 311 311 313 307 313 318 319 320 317 310 312 311 310 311 308 302 307 310 311 312 312 309 308 313 315 315 312 309 312 313 315 315 316 318 317 314 314 318 314 307 310 315 307 312 319 322 326 325 325 328 330 333 337 338 339 339 340 343 344
315 314 313 312 312 317 316 320 318 321 323 323 322 324 323 322 316 304 298 289 306 298 307 308 308 305 308 306 307 308 308 309 314 315 317 313 315 318 316 317 312 309 307 309 308 309 311 316 317 312 310 312 315 315 316 314 314 316 314 314 315 315 314 317 316 315 314 307 309 317 318 314 306 314 318 318 319 324 328 334 336 338 337 338 340 340 341 343
314 312 312 310 317 325 325 317 320 323 324 325 323 321 321 316 306 298 291 297 306 305 308 307 305 308 305 304 303 305 307 308 310 313 310 314 312 312 313 310 314 310 308 307 305 308 311 312 311 313 316 315 315 313 316 316 315 314 313 312 312 313 316 315 314 316 308 305 312 316 317 318 304 311 322 327 329 329 329 328 329 334 335 336 340 340 340 343
311 310 310 313 320 322 316 319 324 326 325 324 321 317 314 303 307 295 294 309 297 302 303 303 307 306 304 306 305 305 305 304 309 309 308 308 309 306 308 305 306 301 300 302 300 309 307 308 312 312 318 315 312 311 311 314 315 313 313 312 305 306 309 304 309 303 305 305 314 318 320 313 311 320 331 325 326 328 332 334 333 334 336 338 340 341 340 342
309 309 308 312 316 320 321 324 328 330 327 323 319 316 308 302 293 298 300 302 297 305 303 307 305 306 306 304 303 304 307 304 307 307 310 309 307 307 309 308 310 306 299 304 302 302 305 310 310 310 312 315 314 308 308 307 311 311 310 308 304 300 302 298 302 309 309 311 315 314 319 313 319 320 325 324 325 330 333 335 336 339 338 339 339 341 339 340
308 308 314 318 318 323 326 335 329 328 322 323 318 312 306 297 295 303 300 303 301 307 306 305 305 306 305 302 303 305 303 306 306 306 306 306 306 304 306 309 309 308 306 305 300 302 298 299 305 308 305 314 313 312 312 309 310 310 314 312 308 306 301 298 303 300 302 308 313 316 312 310 310 316 328 324 330 331 334 337 338 338 341 339 342 344 343 339
306 310 322 329 322 325 325 327 329 329 324 317 312 307 298 297 301 300 302 302 305 305 305 307 304 304 302 304 305 306 306 302 306 306 304 304 303 305 304 306 310 309 307 300 305 304 301 302 308 312 312 313 310 313 315 312 310 312 313 315 310 307 310 302 309 308 305 306 307 312 310 318 316 322 328 331 331 330 332 335 335 337 339 342 340 341 342 341
310 327 328 330 327 329 327 326 328 326 321 314 308 302 299 301 299 303 302 306 306 303 303 305 305 301 301 302 304 304 307 303 305 306 305 305 305 304 307 307 307 309 306 302 304 300 304 301 309 310 313 311 311 313 313 314 302 309 310 305 311 317 311 306 307 309 309 307 304 313 312 319 324 326 326 329 328 330 330 333 336 338 340 339 339 339 341 343
330 327 324 324 322 327 328 330 328 326 321 313 306 301 304 305 305 305 308 304 304 305 304 299 301 300 299 299 302 303 305 306 305 305 301 305 302 305 305 307 309 308 309 307 304 308 301 302 309 308 306 311 314 313 313 314 313 309 304 309 316 319 314 307 300 305 304 299 305 309 307 311 310 309 324 322 325 327 329 332 334 338 338 339 337 341 345 346
324 322 323 321 324 326 330 331 327 324 318 311 304 302 306 304 307 306 308 307 307 307 302 302 301 302 300 301 300 302 304 301 303 303 302 304 300 308 306 306 309 309 309 311 305 306 308 299 305 309 309 311 313 312 310 313 314 308 309 316 307 305 303 309 307 300 301 300 303 308 309 311 312 313 321 323 324 324 327 331 335 333 335 336 336 342 344 346
326 321 315 320 324 326 328 331 326 320 313 306 304 301 303 306 306 307 308 308 308 305 302 302 301 303 303 301 302 302 303 299 303 302 300 302 299 306 306 307 307 309 310 310 307 308 308 300 302 308 308 310 311 309 301 305 312 313 313 310 313 310 307 306 306 308 309 303 301 304 308 306 316 318 321 321 323 328 324 330 331 334 336 336 340 342 343 345
321 316 314 321 325 325 334 327 320 315 310 303 304 305 307 306 307 309 310 307 306 305 303 303 304 302 303 303 302 300 303 303 304 303 301 304 302 308 306 309 306 309 310 311 308 310 305 308 297 305 309 309 302 306 304 306 304 306 306 306 310 309 313 312 312 306 304 303 301 301 301 309 320 326 325 324 328 328 327 328 332 334 336 338 340 341 344 346
321 315 314 323 322 328 327 321 312 309 306 306 306 304 305 306 307 309 309 309 308 310 306 305 305 303 304 303 303 304 302 302 302 302 302 302 303 300 307 308 309 308 310 309 307 309 305 305 300 304 304 303 304 309 308 308 309 307 305 305 307 305 304 302 301 310 308 304 299 302 301 312 326 331 330 331 330 330 334 332 332 336 337 338 338 341 343 344
318 309 312 323 324 325 319 310 309 308 306 305 303 305 304 308 306 306 307 310 308 307 310 308 307 305 306 304 305 303 304 301 302 302 302 302 304 305 307 310 309 310 308 305 306 310 310 308 304 301 303 305 307 310 311 310 311 310 309 306 308 309 309 304 297 303 307 307 309 308 304 310 325 331 330 330 330 332 333 335 335 337 339 338 340 341 342 343
313 311 320 324 325 321 314 308 311 306 306 306 307 305 305 305 304 306 304 306 305 307 307 307 306 306 307 306 305 305 304 303 303 303 304 304 304 306 308 309 310 309 310 308 308 311 311 305 301 302 307 308 310 311 311 310 310 308 309 309 308 305 309 307 307 308 305 307 304 305 304 311 324 332 335 334 335 334 336 336 334 336 338 338 339 341 342 346
316 314 316 322 326 320 311 304 304 305 306 305 306 305 306 307 306 305 305 305 304 306 305 306 307 307 306 308 307 304 306 300 303 303 302 304 304 308 308 309 310 308 307 307 305 311 303 307 304 299 299 301 304 307 306 309 308 306 306 308 309 308 309 310 310 310 304 305 305 303 299 312 326 330 333 334 334 332 335 335 336 335 336 337 337 340 341 346
318 318 317 318 321 317 307 309 307 306 305 304 304 303 304 304 306 305 305 305 306 306 305 306 307 308 308 308 307 306 307 303 304 305 305 306 304 308 308 308 309 309 310 312 317 313 306 307 305 296 294 292 292 295 297 300 303 307 308 308 308 307 307 306 302 305 299 306 308 304 304 319 327 331 331 333 333 333 333 335 336 336 336 336 338 338 340 341
311 307 310 313 314 314 312 313 310 307 306 305 303 305 304 304 306 307 306 306 305 307 306 307 308 308 307 306 306 305 305 307 302 305 305 304 305 307 308 308 308 309 317 315 317 313 307 308 308 306 302 298 300 306 310 309 306 302 305 307 307 307 309 310 309 305 301 307 306 308 310 317 320 322 327 328 332 331 333 336 335 335 337 338 340 339 339 340
318 308 309 305 312 310 309 310 307 307 305 308 303 305 302 304 305 305 305 304 307 306 306 305 306 303 306 304 305 304 305 305 306 305 305 304 306 307 308 308 309 312 315 316 317 310 310 306 308 308 308 308 306 308 309 309 305 305 304 304 307 308 308 307 306 304 314 306 300 310 313 311 317 322 324 329 330 333 333 335 334 336 337 338 339 341 341 340
307 310 313 317 306 303 304 306 308 307 307 306 305 305 303 303 303 303 306 306 305 307 302 306 304 304 305 304 306 303 304 304 305 303 306 306 305 307 305 308 307 314 313 310 312 309 307 303 306 306 305 306 307 307 308 308 307 306 305 306 306 308 308 306 306 308 310 305 303 312 316 311 318 319 326 328 332 332 332 333 334 336 337 339 341 340 339 339
314 316 315 318 308 309 309 311 308 307 307 306 306 305 303 303 303 304 304 305 305 306 304 301 304 305 305 306 304 304 307 301 302 306 304 305 305 306 304 305 307 309 309 308 310 314 307 303 305 307 306 306 306 308 309 307 307 307 306 308 309 308 308 308 307 309 309 311 312 315 322 321 322 326 326 332 334 333 333 334 335 335 336 337 338 339 339 340
313 313 310 315 312 310 311 310 309 307 305 307 304 305 305 304 303 304 305 303 304 304 305 301 304 305 305 304 306 302 306 305 304 303 307 307 306 305 306 306 305 308 308 306 307 313 306 305 307 307 305 305 307 308 308 308 308 306 309 309 309 309 308 308 308 312 312 313 313 318 318 319 327 331 330 333 334 334 334 331 332 334 335 336 337 339 339 338
319 325 325 318 308 308 311 310 307 307 305 307 303 306 305 304 304 306 306 307 305 305 304 304 305 304 303 303 304 304 307 308 309 308 309 307 306 307 305 307 307 305 307 306 307 310 308 305 307 307 302 303 308 308 309 309 308 309 309 311 312 309 306 310 313 317 314 314 313 318 317 319 326 330 330 331 331 331 330 331 332 333 335 336 336 337 337 335
321 325 323 318 309 314 308 310 309 306 303 307 306 306 305 305 306 306 304 306 307 307 308 306 306 305 305 302 304 306 308 307 309 310 311 311 310 310 310 309 308 306 305 305 309 306 308 307 305 303 300 304 307 307 307 308 307 304 304 309 312 312 317 317 317 318 319 316 315 313 313 323 327 328 327 328 329 330 331 332 333 334 335 336 336 334 334 335
Wind_Speed
12 12 12 12 12 12 11 11 11 11 11 11 11 10 10 10 10 10 10 10 10 10 10 11 11 12 12 13 13 13 13 11 12 10 12 12 6 6 7 3 7 7 9 11 12 11 12 12 11 9 9 6 6 9 4 7 4 3 3 4 1 4 2 4 6 4 13 14 11 9 8 13 12 8 9 10 11 10 9 10 8 11 14 17 20 20 19 18
12 12 12 12 12 12 12 12 11 11 11 10 10 10 10 10 9 9 10 10 11 11 11 11 12 11 12 12 13 13 13 11 12 12 16 8 6 6 5 0 10 12 13 13 13 13 12 12 11 10 9 7 3 4 2 3 1 5 5 4 5 2 5 5 4 9 12 14 13 12 10 10 10 11 11 10 13 12 12 11 12 16 19 21 20 20 19 19
13 12 12 12 12 12 12 12 12 11 11 11 10 10 11 10 10 10 10 10 11 11 11 12 12 12 12 12 12 13 12 13 12 15 4 10 5 7 7 6 13 15 16 14 13 12 12 9 9 9 9 8 6 6 5 4 5 2 6 3 4 6 4 5 9 8 9 15 14 14 12 11 13 11 8 12 15 13 14 14 16 18 21 21 21 19 19 18
13 13 13 12 12 12 13 12 12 12 11 11 11 11 10 11 10 10 10 10 10 11 11 12 12 11 11 12 11 11 10 12 10 7 8 5 6 9 9 9 14 16 17 14 10 13 10 7 8 10 8 9 6 8 5 4 3 1 5 5 3 8 4 4 13 9 10 11 14 11 13 11 10 10 9 14 14 12 12 14 18 21 21 22 21 20 18 18
13 13 13 13 13 13 13 13 12 12 12 11 11 10 10 10 11 10 10 10 10 11 11 11 12 11 11 11 12 10 9 9 7 8 8 7 8 10 10 11 16 17 17 12 10 12 10 9 9 10 10 8 5 6 8 3 5 5 6 10 6 10 4 2 13 13 17 16 13 13 14 12 8 6 7 10 9 10 10 14 18 21 22 22 21 19 17 18
13 13 13 13 13 13 13 13 13 12 12 12 11 11 11 11 11 11 11 11 10 11 11 11 11 11 12 10 11 10 7 1 5 5 6 9 9 11 11 10 15 16 15 13 11 11 11 10 10 9 9 10 6 7 3 4 1 6 4 2 10 5 2 7 8 11 14 15 12 13 11 13 12 13 11 11 9 9 10 14 18 20 21 20 19 18 17 17
14 13 14 13 14 14 13 13 12 12 12 11 11 11 11 11 11 11 11 11 11 11 11 11 11 12 11 12 11 9 9 5 3 10 8 6 10 12 12 11 13 15 14 12 13 11 11 10 11 10 9 9 5 8 1 6 3 6 5 6 9 5 4 11 10 13 12 14 10 5 11 10 12 14 10 9 9 14 12 16 19 20 20 20 20 18 17 16
15 15 14 14 14 13 13 13 13 12 12 12 11 12 12 12 11 12 11 11 11 11 10 10 11 12 11 10 8 8 10 2 8 9 10 10 12 13 13 12 14 13 14 14 12 13 10 12 11 9 11 8 3 8 2 8 9 7 2 8 8 7 5 10 12 11 12 8 7 9 11 12 11 12 10 12 12 13 15 15 19 20 20 18 18 18 17 16
14 15 14 14 14 14 14 14 14 13 12 12 12 12 12 12 12 11 11 11 10 11 10 9 11 11 10 8 8 10 3 8 6 6 10 10 12 15 15 11 14 13 11 12 13 11 11 10 12 11 6 6 5 8 5 7 2 4 10 11 6 6 6 11 12 12 14 9 8 12 13 12 12 13 12 12 12 13 16 17 19 20 20 18 17 17 16 15
14 14 14 14 15 15 15 15 14 13 13 13 13 13 12 12 11 11 11 11 10 11 11 10 10 11 10 8 9 9 7 6 6 6 2 9 13 14 16 10 14 13 12 12 12 13 13 7 12 8 9 11 1 6 2 7 6 9 10 9 10 10 10 7 12 10 9 10 10 12 13 14 12 8 10 11 13 15 16 18 18 18 19 18 17 16 15 15
14 14 15 15 15 15 16 15 14 14 14 13 13 13 13 12 11 11 11 11 11 10 10 12 10 9 8 9 9 3 2 4 4 5 6 9 13 13 13 11 13 12 12 11 12 13 11 11 8 7 5 6 5 4 7 2 3 8 11 10 11 10 9 11 11 8 5 5 5 9 12 12 7 2 12 13 11 14 17 18 18 18 17 16 17 16 14 14
14 15 15 16 15 16 16 15 14 13 13 14 13 13 13 13 12 11 11 10 11 11 10 10 10 7 9 10 9 4 3 5 2 5 6 9 10 10 7 8 12 12 11 10 12 11 11 10 8 9 5 5 7 2 10 4 6 8 11 8 10 11 8 7 12 9 4 2 3 5 12 8 4 11 13 13 11 14 16 18 18 18 17 16 16 14 13 13
14 14 15 16 16 16 16 15 15 16 15 14 14 14 13 13 12 11 10 9 11 11 11 11 9 6 8 8 2 6 2 1 4 3 5 6 6 5 5 8 11 9 10 8 10 9 10 8 9 11 11 9 5 3 8 3 4 14 5 6 11 8 8 6 6 8 6 2 1 4 8 6 8 13 12 12 12 14 15 16 18 16 16 16 15 13 13 13
15 15 15 16 16 16 16 16 16 16 16 14 13 14 13 12 11 11 10 11 10 9 8 8 8 8 7 5 6 4 2 1 4 6 6 6 8 7 6 7 4 6 5 9 7 7 8 7 9 12 10 11 7 6 10 6 9 4 9 6 2 10 7 6 7 6 8 2 0 4 5 8 10 12 12 11 12 15 16 16 17 16 16 15 14 13 13 14
12 14 15 16 16 16 16 16 16 15 16 15 13 14 12 10 10 8 9 10 13 10 11 9 8 7 7 3 4 5 3 6 7 6 6 9 7 9 8 7 8 5 5 5 6 6 6 8 10 10 9 9 11 8 8 8 8 4 6 6 6 5 8 8 5 12 8 5 4 4 8 6 10 11 11 11 12 14 16 16 16 16 16 16 14 13 13 13
12 12 14 16 16 16 16 14 13 13 14 14 13 12 11 9 7 9 11 12 6 8 8 8 7 7 11 2 6 6 6 9 8 7 5 5 7 7 8 8 6 6 5 6 3 3 4 7 10 8 9 9 10 8 9 7 8 11 4 1 5 4 8 9 10 6 6 11 7 3 5 7 4 10 12 11 12 14 16 16 15 17 18 16 15 13 13 13
11 11 13 15 16 16 16 13 14 14 13 13 14 13 7 6 8 9 11 11 9 7 6 5 4 3 6 7 7 9 5 6 5 7 6 3 4 8 9 8 8 9 8 4 6 4 8 9 7 10 11 10 8 9 10 8 5 4 4 1 3 8 11 8 5 10 10 11 8 3 8 5 8 12 12 12 12 13 15 16 15 15 15 15 14 14 14 13
13 12 12 14 16 17 15 13 15 15 13 14 11 10 6 5 7 9 8 9 7 6 6 7 6 5 5 6 7 5 3 7 7 6 6 3 2 8 8 8 7 8 7 9 8 9 8 8 9 9 9 10 10 10 10 9 7 2 3 4 7 8 12 11 12 11 13 9 11 5 9 9 11 10 12 12 11 12 14 14 15 15 16 14 15 14 15 14
15 14 12 13 14 16 15 15 15 14 15 15 14 11 10 5 8 9 7 6 6 5 6 6 6 3 10 7 3 5 5 9 3 8 8 9 7 6 7 3 9 10 10 9 9 12 8 9 8 10 11 11 12 12 10 2 5 3 6 7 5 6 7 8 9 12 11 11 10 8 9 10 12 12 11 12 12 12 13 14 13 13 14 14 15 14 14 13
15 13 12 12 13 16 17 17 15 13 14 11 6 5 5 5 6 4 10 8 9 8 6 6 3 2 8 5 4 11 4 7 8 7 7 5 8 8 8 8 9 10 9 9 11 13 8 11 11 11 11 12 15 13 7 8 1 5 10 12 6 5 6 1 11 9 7 9 7 7 10 10 10 12 12 12 12 12 14 15 14 13 13 14 14 14 15 15
13 13 12 12 11 15 16 16 16 15 11 8 10 8 7 11 10 7 10 3 4 4 6 5 7 7 10 6 1 9 9 9 8 8 8 6 8 9 9 10 10 10 10 10 8 9 9 12 11 13 15 13 14 12 12 6 8 2 3 11 9 8 8 4 11 14 11 6 5 5 10 11 10 9 11 13 12 13 14 15 16 16 15 14 14 14 15 14
13 12 12 12 12 12 16 16 16 14 10 7 8 9 6 7 6 6 8 4 8 1 1 2 1 4 4 3 2 5 8 7 9 8 7 11 9 12 11 11 10 10 9 10 8 10 11 12 11 13 14 12 11 12 9 5 9 11 9 9 9 8 11 5 8 12 11 8 10 11 8 9 11 8 8 11 13 12 13 14 15 15 16 14 14 14 14 14
14 12 12 12 12 13 12 13 14 9 5 6 8 10 5 5 3 4 7 7 5 4 6 2 3 2 5 3 2 6 11 9 9 9 9 10 9 12 7 10 10 9 10 11 10 9 10 11 14 11 14 11 10 10 9 11 10 7 2 5 4 14 11 3 4 7 5 1 9 11 6 6 5 7 8 9 12 12 12 13 13 14 15 16 15 15 14 15
14 14 12 12 12 11 15 14 14 7 7 12 9 6 4 4 5 8 9 8 1 8 4 5 3 4 7 7 6 9 10 9 6 11 8 10 11 6 7 11 10 11 9 11 12 9 9 8 13 13 11 7 8 11 10 9 10 3 4 5 7 11 11 9 6 8 7 4 5 9 5 1 5 8 8 9 7 10 10 11 13 13 13 14 14 15 15 16
14 14 13 11 11 12 12 13 5 7 7 11 12 3 1 3 4 7 9 6 7 7 2 9 4 6 6 3 4 9 7 5 11 10 8 11 6 6 10 8 9 8 6 12 12 12 11 9 12 17 12 10 11 12 11 9 9 8 7 2 7 5 7 15 16 7 5 7 8 13 7 5 8 11 11 8 5 10 7 11 4 13 15 15 16 16 16 16
13 13 14 10 12 11 12 5 6 5 4 6 6 3 2 6 5 6 8 7 5 3 10 6 3 4 2 7 6 5 6 6 5 10 7 8 5 11 4 5 6 7 13 11 12 8 8 8 10 7 9 12 13 12 12 9 9 9 5 7 8 7 5 8 11 13 7 3 9 12 3 5 7 12 12 10 11 10 11 10 15 13 14 15 14 15 15 16
13 13 12 11 11 10 6 1 9 8 9 3 2 3 4 5 3 5 7 7 1 5 6 7 5 7 4 3 3 4 9 10 5 10 10 5 11 5 9 7 9 7 5 6 7 9 9 4 9 6 9 11 13 12 9 10 7 4 5 2 9 7 6 8 6 6 7 2 8 15 5 3 4 10 11 13 14 13 11 13 13 13 15 16 16 16 16 16
15 14 11 8 7 5 6 10 11 8 5 6 4 3 6 4 5 5 5 5 9 3 6 4 6 2 6 4 4 5 10 9 9 9 7 6 7 9 9 8 8 8 4 6 9 7 10 7 8 10 10 10 11 11 9 7 6 6 2 4 7 5 5 7 9 8 6 7 2 9 15 5 4 5 12 13 13 15 19 17 17 15 15 17 17 17 17 17
13 12 11 11 9 10 8 7 9 11 6 4 4 6 4 2 6 6 6 2 4 1 3 5 2 6 8 2 8 3 11 5 6 9 6 5 10 10 10 1 7 6 10 12 10 10 5 7 7 12 11 11 9 13 7 9 10 6 2 4 4 7 6 7 8 6 11 6 8 11 16 6 2 2 7 12 11 15 16 19 20 18 15 15 16 17 17 16
13 14 13 9 10 7 6 7 9 9 6 5 6 7 7 6 6 7 6 5 4 7 2 3 6 7 1 9 6 4 6 6 7 6 7 7 8 11 7 15 7 5 7 11 18 7 1 11 5 10 11 10 10 12 7 8 4 6 7 7 6 6 8 7 6 5 5 8 7 15 17 8 4 9 12 13 13 16 14 13 14 17 15 14 14 17 16 16
15 11 9 4 5 3 3 8 9 8 3 4 6 9 8 6 7 6 5 7 5 6 8 1 4 8 9 8 8 1 3 3 9 6 5 6 9 10 8 8 5 6 6 10 12 9 4 3 4 7 7 9 5 11 9 4 6 8 6 7 5 4 2 2 4 4 4 7 8 12 11 13 8 7 10 12 10 16 16 18 18 18 18 15 13 15 17 16
12 11 8 8 7 8 8 3 7 4 3 6 7 8 7 8 8 4 6 5 9 5 8 4 3 6 1 8 9 5 12 6 4 7 6 8 9 8 8 8 6 8 9 9 11 7 9 10 7 7 7 10 9 13 9 9 10 10 8 7 7 4 4 5 2 2 7 5 5 10 13 11 7 6 7 15 11 13 16 14 18 21 21 19 16 15 16 16
12 10 9 11 9 8 12 10 6 5 7 8 8 7 8 7 2 5 4 6 4 9 9 5 6 7 8 10 8 4 8 4 5 8 12 9 8 8 10 8 2 10 7 10 9 10 5 8 11 11 9 9 12 14 10 9 10 11 11 10 9 7 7 7 7 6 5 7 7 12 3 5 12 6 14 15 14 14 17 17 18 20 21 20 20 16 16 17
11 9 6 8 10 10 7 5 4 6 8 8 8 8 8 6 6 3 8 4 5 3 6 3 3 10 5 5 5 6 7 6 8 5 3 4 6 7 10 10 6 7 7 6 12 9 8 10 13 13 10 12 11 9 9 6 10 12 10 10 9 9 7 9 6 4 5 2 4 11 3 4 9 2 14 14 12 11 17 16 19 21 21 19 19 17 16 18
15 8 9 5 6 11 13 11 7 7 7 7 9 8 6 2 4 3 5 5 4 4 3 6 11 6 1 4 2 3 6 2 8 0 6 7 5 5 4 6 7 11 4 8 10 10 15 9 11 16 7 15 14 13 13 11 10 10 10 9 10 10 6 8 2 6 3 7 5 5 4 7 4 13 8 10 11 11 10 18 19 20 19 19 17 18 17 16
8 5 8 5 6 6 9 7 7 6 7 8 8 6 2 4 5 2 6 6 4 6 8 5 9 2 5 3 5 6 7 8 1 7 7 5 5 6 3 4 7 11 5 6 3 10 6 10 13 19 14 15 16 14 13 8 10 9 10 12 8 3 6 7 10 11 11 10 7 7 9 4 5 3 8 4 10 10 8 12 15 18 19 19 15 18 17 14
6 7 6 7 7 4 5 6 4 6 7 9 7 4 5 2 4 6 5 7 9 7 8 5 2 3 2 2 0 5 1 2 1 4 2 2 6 1 7 4 5 8 8 8 4 9 7 7 14 13 11 10 13 15 14 12 10 4 11 10 8 6 6 5 6 3 5 4 4 4 5 2 7 5 6 9 8 10 10 10 16 14 16 17 17 17 13 12
5 6 2 5 3 3 4 4 6 7 8 8 2 7 4 2 6 5 4 7 7 4 8 3 1 5 3 3 1 2 7 2 1 1 3 4 2 4 8 4 7 9 3 5 8 3 8 9 10 12 11 11 10 12 15 12 13 11 8 10 12 11 11 9 4 8 9 8 7 4 11 13 12 7 7 5 6 11 10 13 11 16 17 18 15 17 14 12
8 7 7 7 4 4 4 4 7 8 9 8 2 7 1 4 1 5 4 5 4 5 7 4 6 1 7 3 2 2 1 1 2 1 4 4 4 3 5 7 2 5 5 8 10 4 6 9 8 11 11 11 11 11 13 13 14 14 10 10 14 10 8 7 8 5 4 6 4 4 7 1 9 8 10 8 4 6 7 13 13 14 16 15 16 19 18 14
7 8 6 9 5 3 3 5 8 9 10 5 2 1 2 1 3 2 4 6 5 6 4 5 1 4 5 3 4 1 3 3 4 5 6 7 4 4 5 4 4 4 3 7 9 5 5 5 8 9 11 12 12 11 13 13 14 13 10 9 9 9 5 8 7 9 6 2 4 5 6 1 2 3 9 9 10 12 9 13 11 11 12 15 17 18 15 12
7 9 7 6 7 4 5 7 9 9 4 3 5 5 4 5 2 7 3 1 7 4 9 6 4 3 4 5 7 0 1 3 1 3 0 4 5 5 2 6 4 6 8 5 8 6 8 8 9 4 10 12 10 12 15 14 14 13 12 11 9 11 13 12 11 9 12 9 6 7 2 2 2 3 7 6 8 9 10 11 10 10 15 13 14 15 16 13
7 8 8 8 6 5 8 10 4 5 7 2 4 0 5 1 9 2 5 6 5 5 5 6 2 7 2 5 6 1 4 2 2 2 2 3 7 7 5 4 7 7 7 6 5 4 5 7 10 9 8 9 12 13 14 16 14 14 13 13 15 12 9 11 9 10 10 12 11 8 8 4 1 3 4 7 4 7 6 8 10 9 10 13 11 14 15 14
8 1 8 6 5 7 8 11 5 5 3 8 1 3 4 8 6 4 9 3 6 3 6 2 5 8 4 8 4 5 4 2 1 1 4 4 3 1 4 6 7 7 4 6 6 2 1 6 9 10 10 10 9 12 15 18 14 13 14 13 14 14 13 12 11 9 8 7 8 6 9 4 7 1 3 5 6 7 7 8 12 10 8 12 12 13 15 14
10 3 8 6 6 6 9 9 4 5 4 4 6 6 2 5 5 4 5 2 7 2 6 4 4 3 5 4 3 6 5 6 6 3 6 3 3 2 4 7 5 5 3 3 4 1 8 4 9 9 8 5 7 10 10 12 10 9 10 13 14 15 15 12 12 10 12 11 10 7 12 4 1 1 3 5 8 10 9 12 9 9 7 7 12 12 13 13
6 3 1 7 6 8 10 5 10 3 8 5 6 7 8 7 3 5 7 5 2 3 6 2 3 6 4 2 4 4 2 7 4 6 8 3 3 4 3 6 3 6 4 5 9 6 5 7 8 10 12 11 9 11 10 11 13 9 12 14 17 18 18 14 12 10 9 11 17 12 5 4 5 2 4 5 9 10 11 9 8 10 11 11 12 12 12 12
7 7 6 6 8 8 9 6 7 10 4 5 6 4 4 4 7 3 6 3 4 2 6 6 3 4 5 4 6 4 3 3 6 2 4 6 5 5 1 5 2 5 5 3 9 9 5 6 8 8 9 10 4 6 9 9 11 14 14 14 17 20 16 12 9 12 12 8 7 6 4 7 5 1 3 8 7 11 10 9 7 8 10 12 12 12 13 12
5 9 7 8 8 7 9 7 7 4 7 6 7 6 6 4 5 5 1 5 5 7 2 6 4 5 1 7 3 5 2 5 2 8 6 6 5 2 0 6 4 5 2 6 8 8 6 7 6 8 11 8 7 9 10 13 13 14 16 18 12 10 12 13 11 8 7 5 10 5 7 8 6 7 6 6 8 8 9 7 6 3 9 11 12 12 12 12
7 4 8 9 4 5 7 7 7 7 4 1 1 5 4 4 4 3 8 0 4 4 8 8 8 5 5 6 5 5 1 5 4 5 3 5 5 5 6 6 7 9 7 9 8 6 5 6 7 11 10 13 12 10 10 11 14 16 18 12 14 12 11 15 12 13 5 9 4 7 7 6 11 10 7 6 6 9 9 8 6 4 4 10 12 11 11 12
8 4 5 4 9 3 3 7 4 6 5 7 2 3 4 6 5 2 6 1 2 1 2 5 2 3 5 2 5 6 3 6 4 2 3 7 6 2 6 6 7 5 5 6 4 2 4 7 8 8 10 10 11 9 8 16 11 6 4 7 11 15 15 13 12 16 6 4 6 9 8 15 7 4 5 8 8 10 10 7 7 4 6 8 11 12 11 11
3 5 4 5 9 8 2 7 7 5 8 7 6 6 6 5 6 4 5 4 2 3 1 7 2 3 5 6 3 7 2 5 4 5 5 8 9 7 4 3 3 3 6 4 5 3 7 1 4 9 9 8 9 11 11 12 7 4 5 9 9 10 12 10 5 5 2 5 8 7 4 6 5 8 7 6 7 9 7 9 7 6 7 9 10 12 12 12
5 4 3 6 5 8 7 6 6 7 8 9 7 6 6 4 5 2 3 1 5 2 3 2 1 2 4 6 3 7 2 1 5 4 2 5 5 1 6 5 4 5 3 5 3 2 4 4 3 5 6 8 10 11 9 8 10 9 2 3 2 8 6 3 5 3 4 2 8 11 3 6 5 7 6 6 8 7 8 8 8 6 6 8 10 11 13 11
6 4 4 5 8 1 6 7 8 7 9 5 7 6 5 6 1 4 5 2 1 4 5 3 1 7 4 4 3 1 3 4 5 3 3 3 4 2 3 3 4 5 4 4 1 6 6 4 2 5 7 8 7 11 6 8 12 10 5 5 7 13 10 8 3 2 4 5 4 4 4 4 6 4 6 6 6 9 9 9 9 8 7 8 10 11 11 9
Wind_Direction
347 346 345 344 340 339 336 336 335 331 329 327 326 322 317 318 314 315 315 315 315 315 317 313 315 313 310 310 308 308 303 288 288 235 230 252 59 95 87 115 177 169 204 202 209 203 202 206 211 207 221 211 214 244 206 225 255 277 280 246 147 250 39 25 150 165 138 137 146 153 171 129 121 138 130 141 139 117 128 127 127 135 122 118 125 134 136 138
345 346 344 343 340 338 336 335 334 332 329 328 324 319 315 313 315 310 313 313 316 314 311 316 312 313 309 307 307 306 298 286 273 260 247 91 104 108 126 135 187 184 207 205 203 200 204 200 210 196 220 221 204 238 183 222 247 259 260 32 325 43 39 124 118 138 148 138 147 161 161 137 136 139 145 144 135 139 132 126 131 117 114 120 130 136 140 144
344 344 344 341 338 337 335 333 333 331 331 328 323 322 317 314 313 312 311 311 311 311 310 310 313 308 307 306 304 298 287 286 262 254 216 56 107 176 161 186 191 196 202 201 203 204 212 200 201 208 213 244 165 224 176 179 225 303 280 257 227 77 126 141 137 134 146 133 141 144 148 145 153 145 160 149 140 143 135 132 129 126 129 133 136 141 146 147
342 341 340 339 336 334 334 332 332 332 329 327 322 318 315 313 309 309 307 309 307 310 311 308 308 307 305 302 304 299 281 279 269 108 91 148 199 180 179 183 197 203 209 221 204 218 220 221 208 220 227 244 195 252 234 158 238 332 294 305 315 67 133 121 144 149 145 136 137 137 137 140 144 141 166 140 136 142 142 140 139 138 138 138 141 145 150 147
339 339 338 337 336 334 332 332 331 329 329 325 322 319 315 314 311 308 308 305 309 306 309 308 303 308 301 301 292 283 288 271 95 86 94 163 180 169 174 198 198 201 211 220 212 226 228 223 213 226 247 239 225 218 234 226 201 229 264 247 350 54 66 244 137 173 150 136 139 140 144 147 160 131 165 145 136 144 147 140 139 138 140 142 143 145 150 147
338 338 337 335 335 334 332 331 330 329 325 324 320 318 316 313 311 307 305 303 303 305 304 305 303 301 304 297 288 268 261 279 55 60 93 141 165 158 171 196 206 213 209 222 216 214 223 220 220 222 224 250 224 247 117 221 185 266 247 285 56 22 147 110 134 154 135 136 146 150 143 138 158 153 166 149 154 109 132 141 139 138 140 141 140 145 151 149
336 337 336 336 334 332 331 329 328 326 324 321 319 316 313 311 307 305 303 302 298 301 301 303 301 298 302 300 267 263 252 293 115 84 89 153 155 158 163 192 207 224 219 220 212 212 213 219 219 226 237 243 234 239 220 272 208 266 290 16 45 50 160 143 125 143 148 133 124 131 153 149 151 130 149 133 107 129 142 138 139 137 137 141 143 150 150 148
335 334 335 334 333 331 330 329 328 327 323 320 317 315 312 308 306 304 302 299 298 294 303 298 298 298 304 283 256 229 226 253 54 76 109 143 164 156 161 184 197 213 220 219 204 213 205 222 212 231 248 257 55 237 104 242 238 263 13 45 68 78 71 122 139 138 114 87 145 180 153 137 138 124 120 113 123 132 134 137 137 140 140 144 147 147 148 151
335 333 334 333 332 331 330 329 325 324 322 318 315 314 309 307 303 300 299 295 295 295 295 300 290 295 288 281 276 278 132 51 37 44 125 155 158 161 170 178 198 209 212 214 214 212 213 217 232 237 256 250 215 243 204 271 203 307 50 56 73 90 127 133 129 121 124 149 177 164 128 130 109 121 113 119 122 133 138 144 142 142 142 146 148 145 149 151
335 334 332 332 331 331 328 327 324 322 321 319 316 313 310 303 300 295 292 293 292 294 291 290 292 288 278 262 273 261 82 324 38 63 136 141 155 166 184 185 186 209 210 209 209 215 216 215 234 224 274 278 3 235 241 243 23 57 65 77 83 103 122 96 121 123 126 131 160 138 132 121 127 140 118 124 131 139 146 141 143 144 144 149 147 147 153 149
337 335 331 331 331 330 328 325 323 322 321 319 316 312 306 302 295 293 288 290 289 288 286 283 291 292 270 263 279 310 301 298 13 71 111 154 163 176 187 185 186 205 217 205 212 216 215 242 222 262 252 280 221 219 215 20 354 90 91 111 88 99 114 127 107 104 114 93 341 137 126 116 65 121 128 133 142 146 144 145 148 148 147 147 144 148 152 148
335 335 333 331 331 329 327 324 322 321 322 319 315 308 304 299 295 288 287 284 280 274 270 279 273 271 274 280 264 24 338 60 349 103 149 152 180 188 180 187 188 210 214 203 215 206 221 240 260 255 249 50 236 272 213 182 251 105 106 92 116 119 99 134 130 135 133 78 31 297 134 118 129 116 130 138 144 145 149 148 152 148 146 146 147 150 154 150
333 334 334 333 330 329 325 324 322 321 320 316 313 308 302 298 292 286 280 275 256 260 271 270 267 252 285 268 118 60 321 66 71 182 158 178 152 204 180 181 195 218 226 227 208 205 223 236 251 259 266 279 276 257 49 159 210 99 87 126 141 124 121 129 138 121 117 77 288 283 138 126 107 124 141 147 146 145 153 155 152 148 150 149 150 153 153 154
331 331 333 333 330 327 325 323 322 320 318 315 314 310 301 293 283 275 267 264 279 276 274 266 269 262 263 295 71 66 224 11 131 185 182 144 173 151 178 174 210 236 229 228 218 212 219 237 271 264 279 251 233 141 229 186 225 168 153 167 141 156 142 142 154 130 121 115 249 347 139 138 149 134 145 157 152 155 155 160 154 151 150 152 153 156 155 153
326 329 331 332 330 326 325 322 321 317 316 315 314 307 299 282 268 258 255 249 245 264 262 274 238 261 235 154 93 108 0 272 201 155 167 175 142 160 168 169 192 210 200 282 227 199 217 236 246 243 237 245 273 282 223 219 155 60 178 188 166 193 137 159 160 167 142 157 198 250 113 137 142 143 155 162 161 160 154 164 158 155 153 157 153 157 157 157
327 328 331 333 330 328 325 323 320 315 315 317 311 305 291 274 269 235 236 250 278 232 249 249 214 246 288 216 82 134 213 212 158 145 184 159 180 154 154 177 159 194 182 215 333 185 234 244 234 224 242 207 242 235 229 210 184 155 200 6 167 186 153 152 165 232 169 143 160 273 142 137 159 155 160 164 166 166 157 163 166 158 157 157 156 161 156 161
329 329 334 331 331 328 326 323 319 319 317 314 309 288 265 280 233 233 226 238 235 223 236 279 322 235 289 66 150 202 160 92 102 183 177 219 253 130 176 149 182 166 201 172 222 198 203 231 217 239 242 249 214 234 240 223 184 189 166 167 223 186 171 163 167 221 148 156 144 201 145 149 147 159 165 165 169 171 159 163 171 160 159 160 159 163 156 166
330 333 332 332 330 329 326 320 321 318 321 311 304 304 286 209 238 235 234 232 226 230 238 252 283 267 188 194 194 112 72 157 211 122 198 143 211 171 167 187 156 173 186 183 196 215 177 217 205 230 211 228 224 219 238 217 222 175 176 132 198 184 185 164 160 187 157 153 146 158 124 143 157 161 165 170 176 172 163 165 170 169 162 163 164 167 159 165
330 332 328 330 327 329 327 323 320 320 316 311 289 279 253 225 237 230 248 183 207 194 207 172 226 309 52 63 48 189 196 88 128 192 158 195 180 177 182 160 186 172 193 202 161 215 169 225 202 229 220 209 218 222 234 303 52 197 244 106 306 160 160 168 153 152 158 150 156 154 145 152 161 162 168 170 181 175 168 167 169 176 164 169 169 168 162 166
327 324 327 325 326 328 327 323 319 320 319 293 222 212 205 213 186 191 204 224 256 3 7 11 330 215 193 152 117 55 73 189 183 193 160 174 197 177 187 190 172 207 199 213 154 215 172 216 206 215 220 209 218 221 216 93 116 272 207 110 171 136 107 243 154 155 160 138 171 150 138 160 167 165 170 171 179 186 169 171 172 178 170 176 175 168 164 168
319 325 325 325 323 329 326 324 320 317 307 266 278 270 329 15 343 34 346 280 43 19 341 37 359 349 3 355 237 198 171 172 236 154 191 167 212 196 167 199 177 205 204 216 173 181 205 223 221 216 225 219 216 219 224 167 135 183 179 149 181 142 128 164 144 149 139 147 169 155 148 163 166 172 176 172 183 191 173 174 178 179 173 179 179 169 168 170
325 320 322 326 325 329 326 323 320 318 284 261 269 279 13 34 3 340 321 263 126 115 207 353 299 253 121 293 355 299 236 162 198 151 150 215 177 226 142 217 189 213 183 213 187 178 213 223 225 217 230 237 223 222 238 246 229 179 225 158 170 137 108 87 136 163 169 214 152 167 159 158 167 178 197 190 187 193 180 179 181 179 174 178 181 171 169 175
324 322 319 324 328 323 329 320 320 317 265 230 246 270 26 6 334 346 283 292 269 100 218 313 248 155 136 141 151 202 220 183 157 172 161 222 196 242 149 220 192 219 187 205 202 192 208 220 231 218 223 248 208 228 221 237 251 241 182 34 249 144 131 127 203 160 169 229 156 171 162 147 149 189 211 215 204 194 187 183 185 183 177 179 180 170 172 179
321 322 322 323 324 327 320 324 302 258 227 242 281 305 8 315 337 324 305 276 185 128 21 43 345 9 36 338 112 221 235 141 180 168 145 211 219 154 243 225 205 223 189 200 222 216 222 208 219 223 207 200 202 199 227 231 232 153 281 174 228 157 126 148 192 164 124 5 152 132 120 136 177 185 191 240 251 269 192 192 181 189 186 182 176 176 178 178
313 319 320 320 322 325 323 316 259 233 224 232 246 306 2 322 311 333 305 283 238 133 155 159 275 59 63 199 171 234 276 108 207 125 174 225 181 181 225 204 237 206 215 194 231 245 234 229 200 220 163 200 215 203 215 233 250 167 148 315 49 22 138 128 147 125 143 152 176 149 145 204 205 204 199 185 206 241 230 184 186 197 189 183 182 179 178 178
311 309 318 314 320 327 312 292 212 255 275 286 30 58 353 313 4 309 287 268 121 31 177 138 273 111 286 154 184 251 218 196 54 143 195 232 323 292 107 235 236 194 206 194 212 242 245 174 311 152 180 202 223 232 206 222 252 241 119 131 124 165 185 141 152 178 156 154 192 194 182 173 175 207 197 177 191 209 214 209 189 195 189 184 187 179 181 181
315 311 312 316 318 329 275 306 359 294 267 157 71 354 347 310 28 291 256 243 101 19 5 64 237 87 277 69 288 89 231 128 189 120 211 165 229 149 241 175 188 280 249 171 207 212 249 109 181 207 206 214 219 220 197 205 244 196 80 225 145 166 194 147 140 216 123 167 183 198 172 118 176 219 195 178 196 192 207 217 205 198 190 189 186 183 181 183
310 311 306 307 307 285 299 320 298 269 343 25 320 325 320 7 302 258 250 274 58 175 359 86 31 106 273 117 249 276 30 120 208 151 217 160 242 188 245 199 212 190 161 208 212 183 189 177 220 209 220 220 223 220 171 183 228 55 209 159 216 156 179 195 194 185 156 110 211 203 185 168 222 171 168 186 192 199 201 198 201 200 195 189 188 184 182 184
304 306 312 310 301 270 268 254 299 283 9 333 330 309 312 336 260 260 275 12 59 296 121 156 105 236 203 191 228 298 202 169 292 134 183 174 250 310 231 94 223 226 180 223 227 116 188 233 200 229 214 218 215 217 163 146 216 139 254 241 273 213 180 212 217 218 138 136 199 243 207 197 132 101 175 185 194 198 197 196 193 193 195 193 190 184 183 180
304 310 311 309 289 222 216 230 240 268 318 309 313 301 281 259 241 240 244 66 307 102 279 68 233 59 315 226 142 179 188 148 92 204 172 229 163 224 245 301 204 205 189 222 255 297 173 168 271 218 213 224 199 223 169 166 235 86 200 223 214 208 213 198 245 242 240 228 224 184 199 153 185 189 186 180 201 200 193 191 191 191 193 197 198 184 184 182
305 298 286 287 261 339 283 228 214 228 273 307 292 284 280 246 249 290 18 53 245 87 213 18 63 223 233 239 175 310 325 137 193 161 177 219 179 223 212 193 284 255 204 213 225 203 254 96 270 210 233 230 203 212 121 185 182 198 200 213 225 212 324 253 246 248 211 232 197 214 163 188 191 198 199 208 194 193 191 188 183 187 189 193 201 191 184 184
298 288 266 236 292 324 244 20 22 347 304 299 296 279 251 265 229 306 65 129 251 36 337 32 142 13 290 308 31 221 153 248 81 179 190 221 186 204 176 240 167 218 208 193 201 155 195 215 219 215 206 271 207 215 151 202 205 209 190 208 220 179 207 223 306 335 261 237 340 310 177 192 214 144 175 206 199 194 174 183 182 181 182 188 195 195 186 184
298 283 259 243 260 241 250 272 293 301 290 275 274 259 251 280 348 4 2 312 71 325 84 273 4 311 48 239 117 351 6 247 128 244 191 199 211 220 205 251 220 249 236 176 217 173 199 180 189 206 186 209 246 209 176 193 199 205 208 193 210 218 223 222 210 229 232 260 171 251 229 236 90 150 186 197 180 176 168 189 186 182 180 183 187 192 187 186
297 276 235 194 212 234 272 303 282 294 283 268 260 260 259 289 36 96 269 66 15 79 230 337 290 214 199 311 89 249 203 74 249 148 211 251 202 236 196 165 263 277 269 224 217 182 208 183 201 191 193 178 226 219 194 216 187 211 218 211 213 226 227 225 199 230 280 298 358 299 280 225 173 101 215 167 162 170 145 175 178 177 181 178 187 185 190 188
308 264 240 183 221 238 241 250 257 266 281 272 254 256 276 35 307 10 347 26 45 289 334 86 277 346 30 235 302 162 348 145 281 205 210 187 217 203 256 244 188 279 237 266 221 197 214 233 172 187 198 174 212 219 241 199 227 204 222 221 219 221 218 255 183 194 252 311 203 234 244 35 58 183 257 150 159 157 159 159 172 169 175 177 173 186 187 190
289 191 199 216 220 187 206 212 228 233 254 266 267 266 357 15 25 9 29 317 251 311 343 224 240 217 315 23 328 9 99 319 25 301 268 162 202 226 237 207 213 208 251 262 340 246 207 247 174 170 196 180 202 206 234 221 221 178 211 222 223 144 191 242 254 274 244 244 239 150 252 86 106 143 150 142 149 142 165 140 151 161 168 172 180 182 187 183
221 148 201 196 201 177 184 211 211 227 246 260 267 281 31 111 18 319 48 328 5 326 270 320 338 326 239 331 296 127 132 244 354 315 266 40 177 335 194 200 355 314 254 309 264 271 252 229 127 168 191 196 202 207 221 217 259 182 206 217 213 186 185 199 253 266 264 234 239 176 234 196 224 171 195 168 172 151 149 149 145 154 165 175 183 184 173 178
262 221 237 165 127 165 199 218 234 245 255 264 320 359 269 261 104 325 8 292 270 204 281 301 68 275 260 272 159 204 136 253 120 286 208 280 65 352 294 261 115 296 306 256 258 251 257 267 164 175 201 183 187 201 220 229 240 265 236 184 219 173 193 187 238 226 228 228 255 207 225 200 210 159 200 167 200 159 165 144 150 163 174 175 188 175 169 181
259 240 188 138 153 199 196 219 246 261 266 256 129 214 118 348 308 15 359 322 243 306 290 65 299 111 311 263 17 329 79 269 133 170 234 128 230 144 305 339 170 188 242 252 242 228 238 271 164 171 205 177 188 202 213 195 216 233 284 246 195 215 226 205 198 265 267 272 277 232 274 346 47 178 133 191 170 204 141 142 170 180 171 177 181 175 175 179
226 225 166 138 156 184 202 238 256 250 251 257 140 10 26 32 40 66 2 327 15 308 42 304 245 280 216 335 317 348 126 320 227 117 272 107 259 121 305 194 329 289 306 288 274 303 264 227 280 151 201 176 204 196 216 199 194 202 216 244 209 224 207 250 211 216 234 233 226 242 236 49 39 5 150 164 160 136 185 162 175 167 163 179 176 171 169 167
224 264 104 155 142 186 231 242 246 241 247 39 305 38 208 7 290 111 267 97 292 161 321 331 325 295 343 278 196 113 256 188 227 241 303 106 280 165 173 324 345 293 294 247 262 205 244 236 247 198 213 190 213 191 220 215 200 204 211 213 225 199 209 208 223 211 229 214 233 254 305 164 144 282 138 181 143 155 180 142 146 180 164 173 165 173 167 165
268 245 123 141 144 207 244 251 204 359 281 155 100 21 85 320 256 47 272 144 281 337 149 282 197 297 305 271 336 118 279 209 189 347 188 322 118 306 91 272 284 323 291 276 286 36 334 318 287 237 198 224 218 197 206 233 218 211 204 213 227 242 220 224 231 213 221 238 246 254 253 156 316 269 127 117 178 127 127 135 123 145 151 155 155 164 168 167
233 52 114 159 158 223 245 259 84 254 278 60 104 205 180 186 288 81 272 72 247 153 259 244 16 292 136 308 7 294 250 342 19 337 38 145 108 11 34 290 314 279 293 248 253 134 338 258 246 258 288 273 205 215 190 220 232 215 204 217 216 230 217 227 237 234 244 239 236 232 249 127 236 218 78 104 88 123 123 111 130 152 154 140 158 167 162 155
260 165 151 140 198 223 251 264 214 197 109 83 265 95 305 5 313 48 331 64 314 313 342 348 203 211 322 285 280 299 71 266 137 275 194 239 131 104 268 305 312 291 271 243 276 65 265 252 263 237 227 242 230 184 188 197 214 231 219 196 224 225 232 238 255 250 240 230 235 251 254 121 132 244 99 143 130 127 120 124 128 130 129 145 152 163 163 154
289 299 309 144 189 221 247 283 297 225 136 202 191 186 180 183 67 342 328 25 285 298 261 214 346 335 312 6 298 288 223 281 304 175 331 128 93 186 117 291 317 266 239 359 322 310 234 246 253 236 222 207 214 202 189 200 208 217 240 198 201 231 225 218 220 230 247 250 233 215 223 51 102 118 164 142 124 112 110 102 123 136 146 151 147 156 158 163
238 244 173 195 184 210 251 283 282 305 108 172 221 180 280 189 151 170 278 165 319 327 281 344 213 271 281 244 246 256 261 169 263 16 230 216 181 185 84 290 238 288 55 347 284 272 268 273 258 264 258 238 256 327 305 253 196 219 210 234 204 210 232 250 251 230 228 220 256 242 256 146 121 185 183 143 138 125 117 120 108 133 127 134 141 145 153 154
291 253 184 206 171 230 241 178 230 236 257 153 237 156 198 271 72 167 107 271 117 313 336 274 352 253 145 279 316 258 279 289 196 296 217 282 97 337 156 300 262 138 137 264 253 267 278 268 248 261 253 257 235 239 246 242 223 209 217 213 236 218 206 226 220 232 31 312 232 271 217 178 158 166 184 142 135 119 110 98 83 65 143 139 138 141 147 150
240 250 306 14 309 177 220 201 234 204 301 159 237 122 256 214 174 225 155 270 319 188 288 153 238 263 314 318 354 279 231 276 329 274 75 242 300 167 240 194 282 120 194 239 222 247 313 270 254 277 251 234 238 235 235 240 236 210 216 212 203 220 219 225 232 263 237 248 286 8 9 263 154 165 151 153 138 121 117 111 106 74 98 134 142 142 145 146
262 328 304 97 236 290 280 22 148 280 225 215 257 195 234 247 221 163 336 116 175 220 240 295 226 331 310 346 260 309 3 279 208 240 344 316 256 337 214 194 243 277 235 271 263 51 276 268 281 291 273 236 212 244 229 227 233 265 242 247 235 209 216 224 233 235 235 273 275 49 40 47 25 85 116 104 103 114 108 104 120 155 117 115 131 137 137 141
295 319 254 193 246 273 258 211 223 228 242 133 277 193 254 208 226 132 197 271 250 201 135 265 4 217 243 261 270 260 253 196 246 252 170 259 354 251 346 335 9 252 293 292 292 146 262 185 14 302 289 243 213 210 222 225 199 228 242 247 248 242 229 223 260 326 264 219 259 141 109 88 35 48 98 100 116 116 135 140 129 133 146 152 141 136 124 113
325 326 344 304 247 230 237 241 220 222 247 159 240 162 230 211 247 132 75 5 309 25 251 287 341 275 254 277 245 271 11 281 266 313 243 196 225 123 294 88 272 282 262 279 240 207 226 245 263 263 303 255 214 199 202 160 178 157 94 37 243 210 205 251 164 321 245 181 189 104 134 122 105 97 82 116 119 130 132 129 129 139 147 153 140 126 121 104
290 214 246 279 259 120 245 214 240 228 244 214 215 172 209 200 217 135 197 154 321 295 341 353 167 287 118 262 209 337 9 282 266 288 265 269 274 251 210 295 323 331 336 279 145 258 223 267 236 226 230 232 184 218 162 201 156 158 82 359 34 13 342 106 94 164 35 104 288 185 162 75 115 103 128 125 137 128 133 135 127 128 124 116 113 112 97 121